| time (UTC) | temp F | wind direction | speed knots | gust knots | rain 1hr in | rain 24hr in | rain mn in | humidity % | barometer mb |
| 20260902210904 | 102 | 45 | 3.5 | 8.7 | 0.00 | 0.00 | 0.00 | 37 | 1008.2 |
| 20260902210004 | 102 | 40 | 4.3 | 10.4 | 0.00 | 0.00 | 0.00 | 36 | 1008.4 |
| 20260902205404 | 102 | 47 | 5.2 | 11.3 | 0.00 | 0.00 | 0.00 | 35 | 1008.5 |
| 20260902204505 | 103 | 52 | 2.6 | 8.7 | 0.00 | 0.00 | 0.00 | 35 | 1008.5 |
| 20260902203604 | 102 | 37 | 3.5 | 9.6 | 0.00 | 0.00 | 0.00 | 38 | 1008.6 |
| 20260902202704 | 102 | 33 | 5.2 | 12.2 | 0.00 | 0.00 | 0.00 | 38 | 1008.7 |
| 20260902201804 | 102 | 16 | 4.3 | 9.6 | 0.00 | 0.00 | 0.00 | 38 | 1008.9 |
| 20260902200904 | 101 | 13 | 4.3 | 9.6 | 0.00 | 0.00 | 0.00 | 38 | 1009.1 |
| 20260902200025 | 101 | 15 | 4.3 | 9.6 | 0.00 | 0.00 | 0.00 | 38 | 1009.1 |
| 20260902195404 | 101 | 25 | 4.3 | 9.6 | 0.00 | 0.00 | 0.00 | 39 | 1009.2 |
| 20260902194504 | 101 | 24 | 4.3 | 9.6 | 0.00 | 0.00 | 0.00 | 38 | 1009.4 |
| 20260902193604 | 101 | 18 | 5.2 | 11.3 | 0.00 | 0.00 | 0.00 | 38 | 1009.5 |
| 20260902192704 | 101 | 19 | 4.3 | 9.6 | 0.00 | 0.00 | 0.00 | 39 | 1009.7 |
| 20260902191805 | 101 | 51 | 3.5 | 11.3 | 0.00 | 0.00 | 0.00 | 39 | 1009.8 |
| 20260902190904 | 100 | 42 | 4.3 | 8.7 | 0.00 | 0.00 | 0.00 | 40 | 1010.0 |
| 20260902190004 | 101 | 48 | 4.3 | 8.7 | 0.00 | 0.00 | 0.00 | 39 | 1010.2 |
| 20260902185404 | 101 | 40 | 3.5 | 8.7 | 0.00 | 0.00 | 0.00 | 39 | 1010.2 |
| 20260902184504 | 100 | 37 | 3.5 | 9.6 | 0.00 | 0.00 | 0.00 | 40 | 1010.3 |
| 20260902183604 | 100 | 33 | 3.5 | 8.7 | 0.00 | 0.00 | 0.00 | 40 | 1010.5 |
| 20260902182705 | 99 | 50 | 3.5 | 8.7 | 0.00 | 0.00 | 0.00 | 41 | 1010.7 |
| 20260902181804 | 99 | 3 | 4.3 | 11.3 | 0.00 | 0.00 | 0.00 | 41 | 1010.8 |
| 20260902180904 | 99 | 41 | 2.6 | 10.4 | 0.00 | 0.00 | 0.00 | 42 | 1011.0 |
| 20260902180006 | 99 | 65 | 1.7 | 6.1 | 0.00 | 0.00 | 0.00 | 44 | 1011.2 |
| 20260902175404 | 98 | 47 | 2.6 | 9.6 | 0.00 | 0.00 | 0.00 | 44 | 1011.3 |
| 20260902174504 | 98 | 48 | 1.7 | 9.6 | 0.00 | 0.00 | 0.00 | 44 | 1011.4 |
| 20260902173604 | 97 | 8 | 2.6 | 7.0 | 0.00 | 0.00 | 0.00 | 45 | 1011.6 |
| 20260902172704 | 97 | 52 | 2.6 | 8.7 | 0.00 | 0.00 | 0.00 | 46 | 1011.8 |
| 20260902171804 | 96 | 53 | 2.6 | 7.0 | 0.00 | 0.00 | 0.00 | 47 | 1011.9 |
| 20260902170925 | 95 | 155 | 1.7 | 3.5 | 0.00 | 0.00 | 0.00 | 47 | 1012.1 |
| 20260902170004 | 95 | 42 | 1.7 | 7.0 | 0.00 | 0.00 | 0.00 | 48 | 1012.1 |
| 20260902165404 | 94 | 39 | 2.6 | 6.1 | 0.00 | 0.00 | 0.00 | 49 | 1012.3 |
| 20260902164504 | 94 | 54 | 0.9 | 6.1 | 0.00 | 0.00 | 0.00 | 50 | 1012.4 |
| 20260902163604 | 93 | 69 | 1.7 | 4.3 | 0.00 | 0.00 | 0.00 | 51 | 1012.4 |
| 20260902162704 | 92 | 80 | 1.7 | 4.3 | 0.00 | 0.00 | 0.00 | 53 | 1012.4 |
| 20260902161804 | 90 | 5 | 2.6 | 4.3 | 0.00 | 0.00 | 0.00 | 56 | 1012.5 |
| 20260902160904 | 90 | 40 | 1.7 | 4.3 | 0.00 | 0.00 | 0.00 | 56 | 1012.7 |
| 20260902160007 | 89 | 101 | 0.9 | 2.6 | 0.00 | 0.00 | 0.00 | 60 | 1012.7 |
| 20260902155404 | 88 | 66 | 0.9 | 2.6 | 0.00 | 0.00 | 0.00 | 62 | 1012.6 |
| 20260902154504 | 87 | 40 | 0.9 | 4.3 | 0.00 | 0.00 | 0.00 | 63 | 1012.7 |
| 20260902153605 | 86 | 148 | 0.9 | 3.5 | 0.00 | 0.00 | 0.00 | 64 | 1012.6 |
| 20260902152705 | 86 | 62 | 0.9 | 3.5 | 0.00 | 0.00 | 0.00 | 65 | 1012.6 |
| 20260902151825 | 85 | 41 | 0.9 | 4.3 | 0.00 | 0.00 | 0.00 | 66 | 1012.7 |
| 20260902150904 | 84 | 53 | 2.6 | 4.3 | 0.00 | 0.00 | 0.00 | 67 | 1012.6 |
| 20260902150025 | 84 | 60 | 1.7 | 4.3 | 0.00 | 0.00 | 0.00 | 70 | 1012.6 |
| 20260902145404 | 84 | 58 | 0.9 | 3.5 | 0.00 | 0.00 | 0.00 | 70 | 1012.7 |
| 20260902144504 | 83 | 112 | 1.7 | 3.5 | 0.00 | 0.00 | 0.00 | 71 | 1012.6 |
| 20260902143604 | 83 | 143 | 0.9 | 4.3 | 0.00 | 0.00 | 0.00 | 71 | 1012.7 |
| 20260902142705 | 82 | 153 | 0.9 | 4.3 | 0.00 | 0.00 | 0.00 | 72 | 1012.7 |
| 20260902141804 | 82 | 148 | 0.9 | 3.5 | 0.00 | 0.00 | 0.00 | 73 | 1012.7 |
| 20260902140904 | 82 | 152 | 0.9 | 3.5 | 0.00 | 0.00 | 0.00 | 74 | 1012.7 |
| 20260902140025 | 81 | 154 | 0.9 | 4.3 | 0.00 | 0.00 | 0.00 | 74 | 1012.5 |
| 20260902135404 | 81 | 152 | 0.9 | 4.3 | 0.00 | 0.00 | 0.00 | 75 | 1012.7 |
| 20260902134504 | 80 | 87 | 0.0 | 2.6 | 0.00 | 0.00 | 0.00 | 77 | 1012.5 |
| 20260902133604 | 80 | 135 | 0.9 | 4.3 | 0.00 | 0.00 | 0.00 | 77 | 1012.6 |
| 20260902132705 | 79 | 135 | 1.7 | 5.2 | 0.00 | 0.00 | 0.00 | 77 | 1012.7 |
| 20260902131804 | 78 | 132 | 0.9 | 3.5 | 0.00 | 0.00 | 0.00 | 79 | 1012.7 |
| 20260902130925 | 77 | 0 | 0.0 | 0.0 | 0.00 | 0.00 | 0.00 | 80 | 1012.6 |
| 20260902130025 | 77 | 0 | 0.0 | 0.0 | 0.00 | 0.00 | 0.00 | 80 | 1012.4 |
| 20260902125425 | 76 | 0 | 0.0 | 0.0 | 0.00 | 0.00 | 0.00 | 80 | 1012.3 |
| 20260902124504 | 76 | 0 | 0.0 | 0.0 | 0.00 | 0.00 | 0.00 | 80 | 1012.1 |
| 20260902123625 | 76 | 0 | 0.0 | 0.0 | 0.00 | 0.00 | 0.00 | 79 | 1012.1 |
| 20260902122725 | 76 | 0 | 0.0 | 0.0 | 0.00 | 0.00 | 0.00 | 80 | 1012.0 |
| 20260902121825 | 76 | 0 | 0.0 | 0.0 | 0.00 | 0.00 | 0.00 | 80 | 1012.0 |
| 20260902120905 | 76 | 0 | 0.0 | 0.0 | 0.00 | 0.00 | 0.00 | 80 | 1012.0 |
| 20260902120025 | 76 | 0 | 0.0 | 0.0 | 0.00 | 0.00 | 0.00 | 79 | 1012.0 |
| 20260902115404 | 76 | 0 | 0.0 | 0.0 | 0.00 | 0.00 | 0.00 | 79 | 1012.0 |
| 20260902114504 | 77 | 0 | 0.0 | 0.0 | 0.00 | 0.00 | 0.00 | 78 | 1012.1 |
| 20260902113604 | 77 | 0 | 0.0 | 0.0 | 0.00 | 0.00 | 0.00 | 77 | 1012.1 |
| 20260902112704 | 77 | 0 | 0.0 | 0.0 | 0.00 | 0.00 | 0.00 | 76 | 1012.0 |
| 20260902111804 | 77 | 0 | 0.0 | 0.0 | 0.00 | 0.00 | 0.00 | 77 | 1011.9 |
| 20260902110904 | 77 | 0 | 0.0 | 0.0 | 0.00 | 0.00 | 0.00 | 77 | 1011.9 |
| 20260902110007 | 77 | 0 | 0.0 | 0.0 | 0.00 | 0.00 | 0.00 | 77 | 1012.0 |
| 20260902105404 | 77 | 0 | 0.0 | 0.0 | 0.00 | 0.00 | 0.00 | 77 | 1012.0 |
| 20260902104504 | 77 | 0 | 0.0 | 0.0 | 0.00 | 0.00 | 0.00 | 77 | 1012.1 |
| 20260902103604 | 78 | 0 | 0.0 | 0.0 | 0.00 | 0.00 | 0.00 | 77 | 1012.1 |
| 20260902102704 | 78 | 0 | 0.0 | 0.0 | 0.00 | 0.00 | 0.00 | 76 | 1012.0 |
| 20260902101804 | 78 | 0 | 0.0 | 0.0 | 0.00 | 0.00 | 0.00 | 75 | 1011.9 |
| 20260902100904 | 79 | 0 | 0.0 | 0.0 | 0.00 | 0.00 | 0.00 | 75 | 1011.8 |
| 20260902100004 | 79 | 0 | 0.0 | 0.0 | 0.00 | 0.00 | 0.00 | 73 | 1011.8 |
| 20260902095404 | 79 | 0 | 0.0 | 0.0 | 0.00 | 0.00 | 0.00 | 73 | 1011.9 |
| 20260902094525 | 79 | 0 | 0.0 | 0.0 | 0.00 | 0.00 | 0.00 | 72 | 1011.9 |
| 20260902093604 | 80 | 0 | 0.0 | 0.0 | 0.00 | 0.00 | 0.00 | 71 | 1011.8 |
| 20260902092704 | 80 | 0 | 0.0 | 0.0 | 0.00 | 0.00 | 0.00 | 72 | 1011.8 |
| 20260902091804 | 80 | 0 | 0.0 | 0.0 | 0.00 | 0.00 | 0.00 | 72 | 1011.8 |
| 20260902090905 | 80 | 0 | 0.0 | 0.0 | 0.00 | 0.00 | 0.00 | 72 | 1011.9 |
| 20260902090005 | 80 | 0 | 0.0 | 0.0 | 0.00 | 0.00 | 0.00 | 71 | 1011.9 |
| 20260902085425 | 80 | 0 | 0.0 | 0.0 | 0.00 | 0.00 | 0.00 | 71 | 1011.9 |
| 20260902084504 | 81 | 0 | 0.0 | 0.0 | 0.00 | 0.00 | 0.00 | 71 | 1011.8 |
| 20260902083604 | 81 | 0 | 0.0 | 0.0 | 0.00 | 0.00 | 0.00 | 70 | 1011.9 |
| 20260902082725 | 81 | 0 | 0.0 | 0.0 | 0.00 | 0.00 | 0.00 | 70 | 1012.0 |
| 20260902081804 | 81 | 159 | 0.0 | 2.6 | 0.00 | 0.00 | 0.00 | 69 | 1011.9 |
| 20260902080904 | 82 | 151 | 1.7 | 4.3 | 0.00 | 0.00 | 0.00 | 69 | 1012.0 |
| 20260902080004 | 82 | 155 | 0.9 | 4.3 | 0.00 | 0.00 | 0.00 | 69 | 1012.1 |
| 20260902075404 | 82 | 156 | 0.9 | 3.5 | 0.00 | 0.00 | 0.00 | 68 | 1012.0 |
| 20260902074504 | 82 | 158 | 0.9 | 4.3 | 0.00 | 0.00 | 0.00 | 68 | 1012.0 |
| 20260902073604 | 82 | 166 | 1.7 | 4.3 | 0.00 | 0.00 | 0.00 | 68 | 1012.2 |
| 20260902072704 | 82 | 165 | 1.7 | 4.3 | 0.00 | 0.00 | 0.00 | 67 | 1012.1 |
| 20260902071825 | 83 | 160 | 1.7 | 4.3 | 0.00 | 0.00 | 0.00 | 67 | 1012.2 |
| 20260902070904 | 83 | 163 | 1.7 | 4.3 | 0.00 | 0.00 | 0.00 | 67 | 1012.1 |
| 20260902070006 | 83 | 160 | 1.7 | 6.1 | 0.00 | 0.00 | 0.00 | 67 | 1012.2 |
| 20260902065404 | 83 | 164 | 2.6 | 6.1 | 0.00 | 0.00 | 0.00 | 67 | 1012.2 |
| 20260902064504 | 83 | 161 | 2.6 | 6.1 | 0.00 | 0.00 | 0.00 | 67 | 1012.2 |
| 20260902063604 | 83 | 159 | 2.6 | 6.1 | 0.00 | 0.00 | 0.00 | 66 | 1012.2 |
| 20260902062704 | 83 | 164 | 1.7 | 5.2 | 0.00 | 0.00 | 0.00 | 66 | 1012.1 |
| 20260902061804 | 83 | 160 | 1.7 | 6.1 | 0.00 | 0.00 | 0.00 | 66 | 1012.1 |
| 20260902060904 | 83 | 163 | 2.6 | 6.1 | 0.00 | 0.00 | 0.00 | 66 | 1012.0 |
| 20260902060004 | 83 | 160 | 2.6 | 7.0 | 0.00 | 0.00 | 0.00 | 66 | 1012.0 |
| 20260902055404 | 83 | 161 | 2.6 | 7.0 | 0.00 | 0.00 | 0.00 | 66 | 1011.9 |
| 20260902054504 | 84 | 161 | 2.6 | 7.8 | 0.00 | 0.00 | 0.00 | 66 | 1011.8 |
| 20260902053604 | 84 | 158 | 2.6 | 7.0 | 0.00 | 0.00 | 0.00 | 66 | 1011.8 |
| 20260902052725 | 84 | 154 | 1.7 | 5.2 | 0.00 | 0.00 | 0.00 | 65 | 1011.7 |
| 20260902051804 | 84 | 158 | 1.7 | 6.1 | 0.00 | 0.00 | 0.00 | 65 | 1011.7 |
| 20260902050925 | 84 | 157 | 1.7 | 4.3 | 0.00 | 0.00 | 0.00 | 64 | 1011.7 |
| 20260902050025 | 85 | 156 | 2.6 | 5.2 | 0.00 | 0.00 | 0.00 | 64 | 1011.7 |
| 20260902045404 | 85 | 155 | 2.6 | 7.0 | 0.00 | 0.00 | 0.00 | 63 | 1011.7 |
| 20260902044525 | 85 | 151 | 3.5 | 7.8 | 0.00 | 0.00 | 0.00 | 63 | 1011.7 |
| 20260902043625 | 85 | 148 | 3.5 | 8.7 | 0.00 | 0.00 | 0.00 | 62 | 1011.7 |
| 20260902042704 | 86 | 144 | 4.3 | 8.7 | 0.00 | 0.00 | 0.00 | 61 | 1011.6 |
| 20260902041825 | 86 | 145 | 2.6 | 10.4 | 0.00 | 0.00 | 0.00 | 60 | 1011.6 |
| 20260902040904 | 86 | 138 | 2.6 | 8.7 | 0.00 | 0.00 | 0.00 | 58 | 1011.5 |
| 20260902040004 | 87 | 137 | 2.6 | 7.0 | 0.00 | 0.00 | 0.00 | 57 | 1011.4 |
| 20260902035404 | 87 | 138 | 2.6 | 7.0 | 0.00 | 0.00 | 0.00 | 57 | 1011.3 |
| 20260902034504 | 88 | 139 | 0.9 | 3.5 | 0.00 | 0.00 | 0.00 | 56 | 1011.4 |
| 20260902033604 | 88 | 159 | 0.9 | 3.5 | 0.00 | 0.00 | 0.00 | 55 | 1011.1 |
| 20260902032704 | 88 | 152 | 0.0 | 3.5 | 0.00 | 0.00 | 0.00 | 55 | 1011.0 |
| 20260902031804 | 88 | 151 | 0.9 | 2.6 | 0.00 | 0.00 | 0.00 | 54 | 1011.0 |
| 20260902030904 | 88 | 151 | 0.0 | 2.6 | 0.00 | 0.00 | 0.00 | 54 | 1010.9 |
| 20260902030004 | 89 | 154 | 0.9 | 3.5 | 0.00 | 0.00 | 0.00 | 53 | 1010.8 |
| 20260902025404 | 89 | 151 | 0.9 | 3.5 | 0.00 | 0.00 | 0.00 | 53 | 1010.7 |
| 20260902024504 | 89 | 147 | 0.0 | 2.6 | 0.00 | 0.00 | 0.00 | 53 | 1010.6 |
| 20260902023625 | 89 | 138 | 0.9 | 2.6 | 0.00 | 0.00 | 0.00 | 52 | 1010.5 |
| 20260902022725 | 90 | 113 | 0.9 | 2.6 | 0.00 | 0.00 | 0.00 | 51 | 1010.3 |
| 20260902021804 | 90 | 92 | 0.0 | 2.6 | 0.00 | 0.00 | 0.00 | 51 | 1010.1 |
| 20260902020904 | 90 | 81 | 0.9 | 3.5 | 0.00 | 0.00 | 0.00 | 50 | 1010.1 |
| 20260902020004 | 91 | 98 | 0.0 | 3.5 | 0.00 | 0.00 | 0.00 | 50 | 1010.0 |
| 20260902015404 | 91 | 105 | 0.0 | 0.9 | 0.00 | 0.00 | 0.00 | 49 | 1009.9 |
| 20260902014504 | 92 | 0 | 0.0 | 0.0 | 0.00 | 0.00 | 0.00 | 48 | 1009.8 |
| 20260902013603 | 92 | 114 | 0.0 | 1.7 | 0.00 | 0.00 | 0.00 | 48 | 1009.7 |
| 20260902012704 | 92 | 112 | 0.0 | 1.7 | 0.00 | 0.00 | 0.00 | 48 | 1009.7 |
| 20260902011804 | 93 | 108 | 0.0 | 1.7 | 0.00 | 0.00 | 0.00 | 47 | 1009.6 |
| 20260902010925 | 93 | 102 | 0.9 | 2.6 | 0.00 | 0.00 | 0.00 | 47 | 1009.5 |
| 20260902010004 | 94 | 91 | 0.9 | 2.6 | 0.00 | 0.00 | 0.00 | 46 | 1009.4 |
| 20260902005404 | 94 | 85 | 0.9 | 2.6 | 0.00 | 0.00 | 0.00 | 45 | 1009.4 |
| 20260902004504 | 95 | 85 | 0.9 | 2.6 | 0.00 | 0.00 | 0.00 | 45 | 1009.4 |
| 20260902003604 | 95 | 87 | 0.9 | 3.5 | 0.00 | 0.00 | 0.00 | 44 | 1009.4 |
| 20260902002704 | 96 | 88 | 0.9 | 3.5 | 0.00 | 0.00 | 0.00 | 43 | 1009.4 |
| 20260902001804 | 96 | 79 | 0.9 | 4.3 | 0.00 | 0.00 | 0.00 | 42 | 1009.4 |
| 20260902000904 | 97 | 82 | 1.7 | 3.5 | 0.00 | 0.00 | 0.00 | 42 | 1009.6 |
| 20260902000025 | 97 | 75 | 1.7 | 5.2 | 0.00 | 0.00 | 0.00 | 41 | 1009.5 |
| 20260901235404 | 98 | 67 | 3.5 | 8.7 | 0.00 | 0.00 | 0.00 | 40 | 1009.5 |
| 20260901234504 | 99 | 70 | 2.6 | 9.6 | 0.00 | 0.00 | 0.00 | 39 | 1009.6 |
| 20260901233604 | 99 | 77 | 2.6 | 7.0 | 0.00 | 0.00 | 0.00 | 39 | 1009.6 |
| 20260901232704 | 100 | 80 | 1.7 | 5.2 | 0.00 | 0.00 | 0.00 | 39 | 1009.7 |
| 20260901231804 | 100 | 70 | 3.5 | 12.2 | 0.00 | 0.00 | 0.00 | 38 | 1009.6 |
| 20260901230904 | 101 | 69 | 2.6 | 7.0 | 0.00 | 0.00 | 0.00 | 38 | 1009.6 |
| 20260901230004 | 101 | 130 | 2.6 | 7.0 | 0.00 | 0.00 | 0.00 | 38 | 1009.7 |
| 20260901225404 | 101 | 125 | 1.7 | 5.2 | 0.00 | 0.00 | 0.00 | 38 | 1009.7 |
| 20260901224504 | 100 | 126 | 0.9 | 3.5 | 0.00 | 0.00 | 0.00 | 39 | 1009.7 |
| 20260901223604 | 98 | 84 | 0.9 | 3.5 | 0.00 | 0.00 | 0.00 | 41 | 1009.7 |
| 20260901222704 | 98 | 100 | 0.9 | 2.6 | 0.00 | 0.00 | 0.00 | 41 | 1009.8 |
| 20260901221804 | 98 | 139 | 0.9 | 4.3 | 0.00 | 0.00 | 0.00 | 41 | 1009.8 |
| 20260901220905 | 98 | 147 | 0.9 | 3.5 | 0.00 | 0.00 | 0.00 | 41 | 1009.9 |
| 20260901220004 | 98 | 120 | 0.9 | 5.2 | 0.00 | 0.00 | 0.00 | 40 | 1009.9 |
| 20260901215425 | 98 | 91 | 0.9 | 2.6 | 0.00 | 0.00 | 0.00 | 40 | 1010.0 |
| 20260901214525 | 98 | 114 | 1.7 | 3.5 | 0.00 | 0.00 | 0.00 | 40 | 1010.0 |
| 20260901213604 | 99 | 101 | 2.6 | 6.1 | 0.00 | 0.00 | 0.00 | 38 | 1010.1 |
| 20260901212725 | 101 | 93 | 2.6 | 8.7 | 0.00 | 0.00 | 0.00 | 37 | 1010.0 |
| 20260901211804 | 103 | 83 | 2.6 | 10.4 | 0.00 | 0.00 | 0.00 | 37 | 1010.1 |